Location: Baia Mare
(47.6567°N, 23.5850°E)
Time: 14:41:39
(UTC+02:00)

ISS - Pass Details

Date: 31 December 2018
Orbit: 401 x 408 km, 51.6° (Epoch: 16 December)

Event Time Altitude Azimuth Distance (km) Brightness Sun altitude
Exits shadow 06:42:14 32° 299° (WNW) 730 -3.1 -14.7°
Maximum altitude 06:43:19 45° 349° (N) 565 -3.4 -14.5°
Drops below altitude 10° 06:46:30 10° 64° (ENE) 1,466 -0.3 -14.0°
Sets 06:48:38 0° 71° (ENE) 2,326 0.9 -13.6°
